GFSSGP_250_spd_171.txt.gz
Wind_Speed
36 38 39 39 40 39 38 37 32 25 27 22 21 23 19 14 7 3 5 7 4 4 14 10 5 8 7 11 16 22 25 25 24 25 28 32 34 35 34 25 23 17 14 18 23 24 19 21 18
36 37 38 39 44 42 42 39 34 29 29 24 18 22 21 17 16 12 15 13 5 9 5 12 16 21 15 13 21 25 29 31 31 32 33 35 34 25 18 31 34 18 12 18 20 20 21 25 16
34 35 38 41 45 45 45 42 36 33 30 25 22 16 19 18 19 20 19 17 19 18 16 17 22 25 34 31 27 27 31 31 33 34 35 33 30 26 21 38 34 28 13 18 18 23 19 21 17
32 32 36 40 46 46 46 44 40 35 31 27 21 17 14 16 15 18 19 22 23 26 28 23 25 27 30 34 32 34 34 33 34 35 35 32 23 34 31 37 31 21 14 14 19 21 13 17 21
29 32 34 40 43 45 46 46 44 41 35 30 25 22 21 18 19 18 21 25 27 29 36 38 34 33 33 33 36 37 35 30 33 29 25 21 35 27 36 33 30 22 18 17 15 8 18 19 18
29 30 31 35 39 43 43 47 46 43 40 37 33 30 27 25 22 23 22 27 32 31 33 35 37 34 36 37 31 34 36 35 31 31 26 28 30 36 37 28 28 21 22 22 14 11 15 20 21
25 28 28 29 33 38 41 42 46 47 44 42 38 35 33 29 26 26 28 28 28 32 35 39 39 40 40 45 40 38 38 35 38 35 32 29 37 38 30 28 24 17 22 16 9 6 15 21 23
17 21 26 28 30 34 38 38 45 48 46 45 43 41 39 38 37 35 33 33 35 37 38 38 42 43 40 39 41 39 38 37 34 35 36 35 40 39 28 29 19 20 12 12 9 8 14 18 20
16 20 21 23 25 29 32 35 37 45 46 46 46 44 41 38 37 36 36 35 36 38 39 41 41 41 44 44 39 27 29 47 45 41 41 42 40 31 30 29 10 17 10 7 13 11 14 15 21
20 19 22 26 28 29 28 30 32 33 38 42 45 45 43 41 39 39 41 42 40 39 37 40 42 45 40 46 47 46 45 46 46 44 40 35 37 32 25 19 13 18 10 13 14 13 14 23 26
22 24 25 26 25 26 28 30 32 32 34 35 35 37 36 35 36 36 36 30 34 42 45 44 35 34 46 48 48 46 42 43 42 37 30 32 33 28 30 18 16 17 9 15 15 22 26 27 31
17 21 24 25 27 28 30 32 33 33 33 32 33 35 34 36 35 33 31 27 25 27 33 39 41 43 45 44 42 42 44 39 34 40 35 39 37 33 27 18 16 13 13 17 17 22 23 28 24
14 15 14 13 16 20 23 26 28 29 31 31 31 29 28 27 26 25 25 26 28 27 27 27 27 27 30 33 34 34 32 30 30 31 32 35 37 19 15 15 20 16 18 19 21 20 24 24 15
16 17 16 13 11 12 14 16 17 19 20 18 18 17 17 18 19 19 19 21 22 22 22 20 20 19 19 19 17 17 17 17 18 18 20 23 22 16 17 22 18 20 22 20 24 24 25 19 18
21 20 18 17 16 15 14 13 12 12 12 12 14 14 14 15 15 15 13 11 7 6 4 4 4 4 3 7 10 10 11 10 10 11 13 13 8 12 22 22 14 17 20 21 22 19 15 14 15
30 29 19 20 20 19 18 17 16 14 12 11 12 11 9 8 6 5 6 7 6 4 4 4 4 7 14 22 18 9 6 5 9 11 16 17 14 9 7 10 15 19 15 15 14 10 14 18 19
31 27 20 24 25 26 26 24 21 20 21 21 21 21 19 16 15 16 15 15 19 22 25 27 27 21 22 19 22 20 21 18 16 14 16 18 14 12 8 6 6 11 20 24 25 24 22 22 17
30 25 21 21 26 29 30 31 29 30 30 29 28 31 32 32 30 31 33 31 25 27 26 24 21 21 18 15 16 14 16 15 15 17 15 20 12 11 7 4 7 15 21 25 25 27 26 21 19
30 27 24 23 23 25 26 26 29 29 30 31 31 29 30 31 32 28 26 25 27 24 19 18 20 17 15 13 15 16 14 15 18 13 9 14 14 15 14 16 20 28 26 26 25 22 21 31 30
27 28 30 29 28 26 24 23 24 27 30 29 28 27 25 28 27 23 23 20 19 16 17 15 13 14 13 15 16 13 15 14 14 16 15 20 21 19 18 20 19 21 25 29 27 28 29 30 34
24 23 26 26 26 28 25 26 26 25 25 26 25 25 24 23 20 20 17 13 10 9 12 11 13 17 17 15 14 14 18 20 20 20 18 20 20 21 21 19 22 23 27 29 30 31 34 39 42
22 23 23 22 23 22 25 19 20 20 20 20 21 21 19 21 17 13 11 8 10 8 7 9 12 13 14 16 18 18 19 19 20 22 24 26 27 29 32 32 32 33 36 35 34 32 39 43 45
21 20 20 22 21 21 19 20 17 15 15 14 13 17 13 14 10 9 8 8 9 8 7 6 9 13 14 17 17 20 23 24 25 26 26 27 29 32 33 33 34 36 38 40 41 41 46 46 52
23 22 20 19 21 21 18 18 16 16 15 13 10 8 5 9 11 10 10 13 13 13 13 14 14 16 19 20 21 22 24 27 28 29 32 34 37 39 41 42 41 42 43 43 45 47 52 56 54
25 23 20 16 16 17 18 16 15 13 14 13 11 9 9 8 7 8 9 10 11 13 14 15 17 19 20 21 24 27 28 29 31 32 34 36 38 42 45 45 45 44 45 51 50 54 56 56 56
27 26 22 19 16 15 13 12 11 8 7 6 4 4 4 3 4 6 7 9 11 11 14 17 20 22 23 25 27 29 31 33 35 36 36 38 43 45 49 50 50 50 52 54 58 58 58 64 70
28 23 23 18 18 15 12 10 7 5 4 3 2 3 5 6 7 9 11 13 17 20 20 21 23 26 29 31 34 36 38 39 41 42 44 45 48 52 56 57 57 60 61 65 66 69 73 74 73
28 28 22 22 19 17 16 14 12 10 9 9 10 10 11 13 13 15 15 17 20 23 24 26 27 30 32 36 37 39 42 44 48 50 52 53 54 60 62 64 66 69 70 71 73 75 73 74 71
32 26 25 24 24 20 19 18 17 15 16 16 15 16 17 18 18 20 22 24 26 28 29 30 32 34 37 40 42 44 48 51 55 58 58 59 63 65 68 71 72 75 77 77 74 71 69 64 64
40 35 33 30 28 25 23 21 20 20 21 21 20 21 23 25 23 25 27 28 31 33 34 36 38 39 42 45 51 54 56 59 62 63 64 65 68 71 75 78 79 80 77 72 67 59 61 67 72

GFSSGP_250_spd_174.txt.gz
Wind_Speed
46 44 41 42 47 14 40 23 38 30 34 27 24 17 17 9 3 4 9 4 5 8 5 2 5 7 8 10 13 17 22 28 32 35 37 36 36 29 27 23 32 34 23 20 21 23 24 19 16
43 46 45 46 46 42 34 30 33 34 33 31 26 18 16 15 3 9 9 7 2 3 3 14 16 21 22 25 27 32 33 35 38 40 38 37 32 21 22 27 36 37 26 18 22 20 18 18 17
41 44 46 48 46 40 36 35 37 33 31 32 28 21 19 14 12 18 15 12 13 12 9 11 17 25 23 24 30 34 37 38 41 40 33 27 26 26 31 32 40 32 24 15 19 18 16 18 19
40 43 45 46 47 44 42 39 39 36 32 29 28 24 19 14 17 23 22 14 8 15 24 25 26 30 29 33 34 35 38 38 43 36 27 33 22 30 25 36 39 27 20 19 23 11 9 20 19
42 43 42 44 44 46 43 43 40 40 37 34 30 27 21 17 16 19 20 20 24 27 28 29 33 38 41 42 42 41 38 40 43 36 35 30 30 32 37 44 39 30 19 20 25 10 12 19 23
36 39 41 43 44 46 45 44 44 41 38 35 32 29 26 21 20 18 18 18 22 25 25 27 33 34 38 40 42 44 44 44 39 39 38 37 37 38 38 41 34 29 20 18 12 8 8 14 19
28 34 34 37 39 44 45 45 45 44 41 36 34 30 29 27 23 22 20 22 23 25 28 34 38 35 39 44 44 43 48 45 45 44 39 44 46 43 43 38 28 24 19 15 9 7 9 15 18
27 29 30 33 37 42 43 46 46 47 46 43 37 35 33 31 30 30 29 28 28 31 32 33 37 40 42 43 44 44 45 43 36 45 51 54 50 46 37 35 31 19 19 16 12 12 13 14 15
23 27 30 29 31 38 41 45 46 46 48 46 44 42 41 39 38 38 38 37 39 36 39 43 41 43 42 41 42 43 41 38 37 47 49 46 43 33 34 29 25 15 19 17 14 16 13 13 23
16 20 26 31 32 32 35 39 44 44 44 46 48 48 46 44 43 43 43 43 44 41 41 41 43 42 38 39 37 39 43 49 44 42 31 37 41 41 33 29 24 15 20 15 16 19 19 18 26
19 19 20 24 27 31 34 37 39 41 44 42 44 47 46 46 48 48 49 45 43 40 39 43 43 43 42 33 39 45 49 40 35 25 25 37 43 44 33 20 18 15 16 16 13 32 16 24 28
20 22 22 22 25 27 30 32 34 35 35 34 36 38 40 40 38 41 40 38 36 38 38 31 30 31 37 39 33 31 27 27 30 38 29 31 36 35 30 10 14 14 14 16 14 8 10 27 20
21 25 27 28 29 30 29 30 30 31 31 32 33 32 33 34 33 33 34 35 34 33 31 29 26 25 24 24 17 10 20 33 21 19 21 27 28 21 2 2 6 17 16 14 14 16 16 17 13
14 18 20 24 27 30 32 33 32 31 31 30 30 30 30 31 29 29 28 27 25 23 22 22 23 22 21 18 15 21 24 15 16 15 17 18 14 12 1 5 15 20 19 22 20 21 18 12 13
11 11 10 10 15 21 24 26 26 26 27 27 27 27 28 27 23 18 16 14 14 14 14 13 12 9 9 8 6 6 8 9 11 15 22 19 20 17 12 2 3 8 10 15 16 16 17 17 19
23 16 11 5 8 12 15 16 17 18 18 18 17 16 14 11 8 7 6 6 6 5 2 2 9 12 18 25 28 25 23 16 12 10 17 16 17 16 13 10 8 10 14 16 17 16 14 19 22
10 9 4 3 11 12 15 17 18 15 12 10 11 12 11 10 11 11 11 9 14 16 19 19 17 19 19 21 20 17 15 18 15 8 16 15 13 12 9 9 13 12 21 24 23 23 21 16 15
29 28 15 11 19 19 19 19 24 22 21 20 20 19 20 19 22 23 22 21 19 19 18 17 15 15 12 16 13 12 9 9 12 8 12 16 14 12 10 10 10 15 22 28 31 26 22 20 15
30 28 23 21 23 30 18 24 26 32 32 32 32 33 34 34 30 29 26 23 21 18 19 16 13 15 15 16 15 15 18 21 23 20 17 21 23 22 21 21 20 19 21 22 25 28 28 27 26
34 24 23 24 23 26 26 29 31 33 34 32 31 29 29 27 26 24 18 15 11 10 10 9 13 15 15 14 15 14 16 17 18 21 22 24 25 24 24 24 25 26 26 28 32 32 33 34 34
29 30 27 24 22 22 25 28 29 28 28 29 29 29 24 18 15 14 12 6 6 8 6 11 13 14 14 13 14 15 16 18 21 23 24 25 26 27 30 31 32 33 34 36 39 41 39 39 37
28 27 26 28 28 28 29 28 27 26 24 24 24 25 24 19 15 11 9 11 3 1 3 9 10 9 11 12 15 18 20 22 24 26 29 30 33 35 37 38 43 31 37 38 39 41 44 48 48
23 28 26 26 25 18 23 24 23 24 22 19 19 17 18 17 14 8 7 8 8 6 5 8 9 10 12 16 18 20 22 24 26 27 28 30 32 36 41 46 37 32 44 47 42 45 48 48 50
23 22 22 21 19 21 17 20 20 19 20 17 13 11 8 11 13 12 9 9 9 8 9 10 12 15 18 21 22 24 26 26 27 30 34 36 38 39 41 37 34 41 51 54 51 52 53 54 52
27 24 23 22 20 18 17 19 18 17 16 18 17 13 11 11 9 7 5 6 6 8 11 13 16 18 20 23 27 29 29 31 33 35 37 39 39 38 35 37 47 51 57 58 58 59 61 60 55
27 27 25 25 23 21 19 19 17 16 15 13 13 10 5 5 6 5 4 6 8 10 13 16 20 23 25 26 28 30 33 35 37 39 41 41 41 44 46 48 52 54 58 63 69 67 60 55 55
31 27 29 27 24 21 20 17 15 14 12 9 6 5 3 1 3 6 9 11 13 15 17 19 22 25 27 31 33 34 37 39 42 45 46 45 49 52 55 58 60 64 69 75 70 62 57 54 51
33 34 26 23 24 21 22 19 17 15 13 11 8 7 5 7 8 10 13 17 20 22 24 25 28 30 32 35 38 41 43 46 49 53 53 55 58 60 63 65 70 74 78 76 64 55 53 50 53
37 31 27 27 26 27 23 22 20 18 16 13 11 10 12 13 14 16 19 21 24 27 29 30 32 34 37 40 44 49 52 55 58 60 61 64 66 70 72 74 78 81 81 67 54 50 49 53 60
42 37 35 32 29 26 26 23 19 17 16 15 15 15 17 20 21 20 23 24 27 30 33 35 37 40 42 45 49 55 58 60 63 65 68 71 73 75 78 82 84 87 74 58 47 50 55 67 69

GFSSGP_250_spd_180.txt.gz
Wind_Speed
48 43 37 34 30 26 23 23 20 23 20 8 17 17 10 18 9 18 7 3 2 2 5 7 9 17 21 23 22 28 41 44 44 43 39 35 31 33 24 33 35 36 42 27 13 15 13 14 17
51 46 39 36 33 30 26 17 20 14 16 21 22 20 9 6 4 7 13 7 6 4 6 9 16 18 20 24 28 35 36 42 42 44 42 37 38 31 36 31 39 36 26 23 20 17 15 16 19
50 51 42 38 37 35 27 22 16 10 12 14 23 24 16 7 5 8 13 9 7 6 11 17 17 19 21 28 34 35 39 41 43 42 39 40 40 36 37 35 34 34 28 25 20 17 6 13 18
53 53 45 38 37 37 35 35 23 18 11 10 11 12 17 16 8 11 14 19 16 20 24 20 23 22 28 32 35 35 41 45 45 42 43 42 41 35 37 32 31 28 26 19 17 12 13 13 16
54 55 47 44 33 39 33 42 41 25 19 17 17 17 16 18 17 15 18 21 23 25 23 20 20 26 29 31 34 37 38 42 45 43 42 41 38 32 25 24 26 27 20 17 12 11 15 17 18
52 51 49 51 50 31 26 42 40 33 28 24 23 20 17 16 17 18 20 22 21 20 21 21 23 27 31 35 38 41 45 48 51 45 39 41 31 36 20 22 30 32 20 15 11 15 20 19 18
49 53 53 52 50 53 46 37 39 39 36 30 26 28 27 24 22 24 24 24 22 22 23 26 30 32 35 39 42 46 48 49 44 34 38 35 34 24 16 26 26 25 15 13 18 17 15 13 21
50 51 51 47 48 47 49 42 44 42 37 36 34 32 32 33 32 29 27 27 28 26 27 30 35 38 40 45 49 45 46 46 37 33 35 26 28 21 27 32 24 23 7 8 12 11 15 12 15
51 49 49 49 37 43 50 47 46 44 44 40 41 41 40 37 35 33 33 31 32 31 33 37 40 42 46 47 46 42 39 33 30 28 28 34 29 22 24 19 12 3 7 12 11 12 11 12 11
45 49 50 51 52 45 45 46 45 45 46 44 42 41 41 40 39 38 36 34 37 38 40 43 46 46 48 43 41 38 29 26 27 23 31 30 25 23 11 7 5 5 10 11 10 10 12 10 10
43 47 46 49 50 47 45 43 42 42 43 42 43 42 41 40 41 42 40 40 42 43 45 49 49 45 42 40 38 31 26 22 19 23 20 21 19 16 14 6 6 10 11 14 13 18 13 12 14
35 38 40 42 44 43 43 42 41 41 40 39 38 40 38 39 41 40 39 39 42 43 45 45 41 37 35 31 25 20 17 10 14 16 14 21 18 13 6 8 5 8 11 15 19 18 14 11 9
25 24 33 35 39 40 41 40 39 39 38 36 35 37 37 37 37 39 39 40 41 40 36 31 29 24 20 18 13 10 7 7 11 14 12 18 23 18 11 10 7 7 8 13 12 15 16 11 8
20 21 22 26 28 31 33 35 36 36 35 33 33 34 32 33 32 31 32 32 29 25 21 17 13 8 5 5 7 6 7 9 5 17 16 18 18 17 9 5 3 6 10 11 19 23 24 21 18
20 19 21 25 26 28 28 28 27 27 27 27 24 24 22 23 25 26 23 20 16 14 5 2 9 19 21 21 21 18 14 8 7 12 18 16 16 12 12 13 16 16 15 16 23 26 27 26 23
21 21 20 23 23 26 26 28 31 31 29 27 24 23 23 19 14 10 10 11 6 7 20 20 20 17 16 14 11 14 12 8 9 13 15 16 16 15 13 12 14 17 20 22 23 24 25 25 27
23 19 16 18 16 17 19 21 22 22 23 23 21 17 10 6 3 4 6 14 21 30 22 18 17 17 16 11 12 12 13 15 16 16 17 16 17 18 19 20 19 22 24 22 19 25 31 32 35
20 20 17 21 16 12 11 14 16 15 16 17 13 9 10 11 12 22 25 28 28 22 17 14 16 15 14 12 15 17 17 17 18 18 17 19 23 26 24 22 20 25 29 28 19 26 32 42 44
25 17 19 14 17 15 10 12 13 13 13 14 20 25 27 29 26 26 24 24 23 18 15 13 13 15 16 19 18 17 16 16 16 18 21 23 25 25 26 29 30 20 23 20 25 34 37 36 41
20 25 15 12 11 14 15 12 19 19 22 32 36 37 34 30 29 25 26 22 17 16 15 14 18 18 18 16 16 15 16 18 20 22 24 26 27 27 29 31 16 26 37 31 34 39 41 34 41
20 22 18 15 15 17 20 21 28 31 31 35 36 32 31 26 22 19 18 15 14 11 15 17 14 15 15 16 18 19 19 19 21 25 28 30 29 30 31 30 18 34 35 37 38 42 43 46 47
23 17 16 16 19 21 25 32 36 41 35 31 29 29 28 22 22 19 13 11 12 12 14 12 11 12 13 15 18 20 23 25 26 28 30 31 30 32 34 36 36 37 38 46 53 50 47 41 41
28 27 28 22 27 31 33 36 37 39 35 30 24 26 23 22 21 20 18 18 17 13 12 11 12 14 15 16 22 23 24 25 27 31 34 33 36 41 45 46 48 47 54 59 57 55 49 45 45
25 26 28 32 31 35 32 32 33 33 29 30 22 25 24 24 26 21 16 15 13 11 12 12 13 15 18 21 23 25 28 32 35 38 42 45 48 51 51 55 56 56 63 64 57 52 48 42 42
25 26 30 34 34 37 39 35 33 33 30 28 25 23 26 23 22 18 14 12 11 11 12 13 13 16 20 23 26 30 35 38 42 45 48 52 55 56 58 61 62 66 69 63 54 45 36 38 34
28 31 35 42 41 37 39 40 36 33 31 31 29 24 20 18 15 15 12 10 8 7 9 11 12 16 21 26 31 36 39 43 47 50 52 55 59 61 63 66 67 72 71 60 50 43 39 36 34
34 33 32 35 33 33 34 38 34 31 29 30 29 27 23 18 14 11 7 4 4 5 9 12 15 20 25 31 35 39 42 45 49 53 56 59 63 65 68 69 73 76 67 57 47 40 38 34 38
37 39 35 36 37 35 33 31 31 31 29 26 24 22 19 19 14 10 6 1 3 6 10 13 18 23 27 32 36 41 44 47 51 56 59 63 65 68 71 73 77 77 64 56 47 40 36 35 43
43 38 39 38 37 33 32 31 31 28 25 23 22 20 18 15 12 10 6 4 7 9 13 17 20 25 30 35 39 43 47 50 54 59 63 66 70 73 75 77 82 75 62 53 43 41 34 42 45
46 45 41 38 38 38 36 32 30 26 24 21 21 19 17 14 10 10 7 7 11 13 15 18 22 28 33 37 42 45 49 52 57 62 65 69 73 76 78 82 83 67 59 48 44 33 40 41 49

GFSSGP_250_spd_183.txt.gz
Wind_Speed
39 38 35 33 26 23 27 7 3 9 4 1 14 15 12 4 6 9 2 5 3 5 7 10 14 16 22 25 26 33 37 38 43 45 42 41 36 31 24 32 30 28 28 23 19 18 14 17 16
42 43 37 36 29 24 23 26 15 15 16 13 8 11 15 11 3 7 11 12 13 14 15 11 14 21 29 28 26 35 39 38 41 44 44 37 35 32 27 29 27 28 23 18 16 11 11 15 18
45 44 41 37 29 26 25 25 24 13 7 10 15 10 14 9 2 7 11 10 8 8 8 14 22 21 22 26 31 33 37 40 43 46 40 38 35 27 30 26 19 28 22 17 19 16 11 13 21
51 46 44 44 36 28 24 24 23 15 7 6 11 10 9 14 7 4 7 6 9 13 20 21 21 20 24 29 33 38 40 43 46 47 38 35 36 32 32 16 16 28 23 16 15 13 17 20 22
49 49 45 46 40 34 30 25 24 23 15 13 13 11 12 10 10 13 13 12 15 21 23 22 20 22 29 34 36 39 41 47 45 46 41 34 33 30 24 14 22 28 20 12 11 19 16 15 23
49 52 47 43 39 40 39 35 31 30 24 21 19 16 18 14 18 19 16 15 16 20 22 21 22 28 32 39 37 40 47 45 43 41 32 33 31 32 27 16 25 26 24 11 15 13 15 11 11
50 50 49 47 39 39 42 39 38 35 39 33 24 22 21 22 18 19 19 19 20 20 21 25 28 32 39 39 40 46 45 42 42 33 28 27 29 31 30 27 30 29 17 10 14 11 11 11 12
48 50 50 51 43 30 32 35 35 38 38 40 29 28 26 27 27 23 23 23 23 24 28 29 33 38 41 44 45 44 42 39 35 29 27 29 31 24 20 28 18 6 9 9 17 14 16 14 12
49 49 52 54 47 45 41 36 33 35 36 37 34 33 34 34 33 31 29 29 27 29 32 35 38 42 44 45 43 38 36 30 28 25 24 27 27 20 17 14 7 3 7 14 14 14 16 15 7
50 49 50 52 52 50 53 52 50 47 45 40 40 42 41 37 35 36 37 36 34 35 38 41 42 44 41 37 36 35 28 24 20 19 23 23 23 15 11 11 3 2 6 14 15 16 20 18 17
50 51 48 50 52 55 52 48 47 45 47 44 45 45 42 39 41 38 37 37 37 38 37 36 38 35 33 34 33 28 20 13 13 18 22 23 17 17 13 4 8 6 14 9 16 16 18 19 16
47 48 48 47 48 49 49 49 47 46 44 44 42 41 41 40 41 40 36 37 37 37 35 30 29 28 28 27 24 20 12 7 12 18 16 18 21 17 14 10 6 11 14 14 14 15 22 22 20
45 47 48 48 49 50 50 50 50 48 45 42 39 38 38 37 34 33 32 31 32 30 27 27 25 22 20 16 12 9 8 9 13 13 14 16 18 16 8 11 11 13 12 13 17 17 25 23 19
37 41 43 44 47 50 49 47 46 45 43 42 39 36 33 31 31 28 27 26 27 26 22 19 12 7 9 12 15 13 10 7 11 15 16 15 15 14 12 13 15 15 18 19 20 23 25 23 24
27 28 32 30 36 41 43 44 43 42 40 37 35 33 32 27 22 19 20 23 20 12 8 8 15 12 11 16 17 15 10 9 10 13 15 16 15 14 14 15 15 17 18 23 25 26 20 19 21
23 23 27 29 32 35 36 36 37 39 38 33 29 24 19 16 17 17 16 8 3 5 17 16 14 15 13 11 11 10 12 13 16 15 17 18 19 18 19 19 17 17 22 25 23 20 21 28 28
26 26 29 28 28 28 30 31 32 32 31 27 23 20 17 17 11 4 3 6 15 21 15 17 19 17 15 15 17 15 17 17 18 21 22 22 23 23 22 24 23 23 21 22 25 22 25 36 38
24 27 25 22 23 23 26 26 29 29 29 26 22 16 14 9 11 12 18 25 22 17 16 16 16 17 17 19 18 18 19 17 18 20 22 24 25 23 27 29 24 19 19 28 29 33 38 41 41
22 25 23 22 20 19 18 21 19 18 20 18 16 15 16 21 25 28 30 24 18 16 17 17 18 18 19 18 15 15 16 18 20 23 28 30 30 28 26 26 27 27 33 33 35 39 44 46 46
22 24 23 19 20 17 18 19 16 15 16 15 19 26 30 30 29 32 27 21 18 14 17 18 17 16 16 17 19 19 19 22 24 26 28 28 30 30 31 27 27 31 33 40 42 46 44 42 40
23 24 26 19 15 20 16 18 24 21 25 21 32 36 33 31 28 28 22 18 13 14 17 16 14 15 16 18 18 20 23 23 24 27 29 32 36 39 39 39 40 40 45 45 46 46 41 36 36
27 19 17 16 19 19 16 23 25 32 38 40 36 36 31 27 23 25 20 16 16 15 14 13 13 13 16 16 18 21 25 27 28 30 34 39 41 43 46 47 50 55 60 59 55 49 44 43 39
26 16 12 16 21 23 30 29 36 40 43 42 36 33 31 29 24 22 23 20 16 13 11 10 12 14 15 16 20 25 30 32 34 39 42 45 48 49 51 54 58 63 63 61 55 49 47 36 29
31 23 11 17 19 28 35 39 41 40 34 39 36 34 31 31 28 26 24 19 14 10 9 8 10 13 16 20 23 27 31 36 40 45 49 51 53 57 58 62 63 67 66 59 55 47 40 34 26
21 19 17 26 31 37 41 44 41 36 30 31 35 32 35 34 29 26 24 19 14 9 8 9 10 12 17 22 26 31 36 40 43 48 52 54 56 60 63 65 67 71 68 58 54 40 34 31 26
27 26 28 32 39 41 41 39 37 31 27 30 31 31 28 31 27 23 21 17 12 7 6 6 8 12 17 23 28 33 38 42 46 50 55 57 59 63 66 67 71 75 66 60 49 41 35 32 27
33 29 32 33 38 37 38 39 36 32 30 30 32 33 28 25 23 19 16 13 9 5 2 5 7 12 18 25 30 35 39 44 48 52 57 60 62 64 70 70 75 74 62 59 45 39 36 30 30
38 43 36 31 35 36 38 37 35 35 33 31 31 30 27 24 23 20 16 11 7 3 2 7 12 17 21 27 32 36 40 45 49 53 59 61 63 66 70 72 76 73 61 51 42 42 40 39 42
40 39 39 34 38 39 37 38 35 35 33 34 26 24 23 19 16 14 11 8 5 3 5 9 14 20 25 29 33 37 42 46 50 55 60 64 65 68 71 75 79 68 56 45 42 43 43 43 44
49 46 44 45 40 42 40 39 36 36 34 31 27 24 21 18 14 11 9 8 7 7 9 13 17 22 26 31 35 39 43 48 52 56 61 66 67 70 72 75 76 64 56 44 42 44 46 48 49

GFSSGP_250_spd_186.txt.gz
Wind_Speed
37 32 33 21 19 17 15 12 13 2 6 8 17 14 13 12 5 5 4 1 3 8 14 14 17 19 24 28 28 31 36 38 43 42 43 37 32 31 26 31 22 30 26 19 18 15 14 17 23
36 36 31 28 24 20 20 11 12 13 11 5 7 11 11 2 3 9 6 8 10 13 14 12 15 25 27 27 31 35 38 41 43 45 44 35 31 27 26 23 18 27 24 17 16 13 15 16 29
40 39 32 30 28 23 21 22 20 17 12 2 9 9 6 6 6 8 9 8 12 13 13 12 21 27 26 26 35 38 39 41 43 43 39 29 28 22 24 24 16 25 27 20 17 16 17 15 22
41 42 38 32 29 26 26 21 22 23 15 3 4 5 10 11 10 4 5 6 12 15 18 24 23 24 26 32 37 40 43 41 43 40 35 29 26 26 25 19 13 24 27 22 11 12 12 12 11
45 41 39 36 33 30 28 25 26 27 25 14 13 8 7 11 9 9 11 15 16 18 20 20 22 25 29 36 40 44 44 45 40 35 28 25 26 27 22 22 16 23 24 24 15 12 12 11 13
49 45 43 45 37 33 27 26 26 28 25 22 15 13 16 13 13 15 15 17 17 18 22 25 25 28 32 37 43 45 46 39 36 30 29 27 26 28 21 15 17 21 24 13 14 13 11 15 12
46 48 47 44 41 38 32 30 28 29 28 23 23 21 18 17 16 18 17 18 19 22 23 26 28 32 36 41 46 43 37 35 30 29 22 24 27 25 19 17 17 16 7 8 14 14 15 16 14
43 50 52 46 47 42 39 36 33 30 31 29 28 31 27 22 24 26 29 27 25 26 25 29 32 37 40 42 39 37 35 27 26 22 23 26 30 23 17 14 13 8 10 12 11 14 13 19 20
43 47 48 50 50 44 43 39 37 38 36 36 35 32 31 30 32 33 32 33 36 35 33 35 37 37 37 34 34 32 27 24 19 20 23 27 22 13 11 15 12 7 10 12 15 18 14 17 19
44 42 46 47 47 43 42 41 32 40 41 34 29 34 34 34 35 37 38 37 38 36 34 34 34 36 32 30 29 26 23 18 16 20 21 21 21 14 13 12 9 9 13 16 16 15 17 20 21
49 47 44 44 44 46 43 40 37 33 31 37 41 42 42 38 39 39 39 38 34 32 30 31 29 27 28 26 24 22 16 14 18 21 22 22 18 17 13 8 10 11 17 17 18 21 16 24 22
49 49 49 47 44 45 46 45 45 46 46 45 41 36 37 39 38 38 38 37 33 29 27 26 24 26 22 20 16 13 15 19 22 23 24 22 21 18 15 14 16 16 16 16 17 22 25 26 22
47 49 50 50 47 45 46 47 47 48 48 48 45 45 43 42 38 38 34 30 28 23 22 21 19 18 13 14 15 15 17 18 18 19 18 18 18 16 15 15 14 15 17 18 20 23 24 25 18
45 48 49 48 47 48 48 47 47 46 45 47 47 47 43 39 39 33 30 24 20 18 16 13 7 9 11 18 20 16 16 16 17 19 21 22 22 20 17 17 18 17 17 22 26 25 26 23 19
37 42 45 46 46 46 47 47 46 46 46 44 45 42 40 37 33 31 21 17 14 8 4 9 9 8 14 17 16 17 16 16 18 21 24 23 23 23 21 20 17 19 19 22 24 25 27 25 26
34 38 43 44 45 45 46 47 45 45 44 43 39 36 34 33 27 15 13 7 1 10 14 14 17 21 19 19 18 18 18 20 23 25 28 27 27 26 26 24 25 24 21 21 28 28 29 30 32
29 31 35 35 36 36 37 39 38 38 36 34 32 29 28 18 11 12 6 10 19 17 15 19 21 20 18 19 18 19 21 22 24 25 26 27 27 25 25 28 28 26 25 32 31 32 34 38 41
27 23 23 28 27 29 30 29 30 29 28 25 24 21 16 12 13 11 15 24 19 15 16 19 21 19 20 19 18 20 21 22 24 26 27 29 28 27 24 22 27 26 27 32 33 33 34 35 37
29 27 27 28 26 25 24 24 27 29 27 23 22 21 14 11 14 21 30 23 19 18 19 20 21 18 17 18 21 21 21 23 25 27 29 32 35 36 34 34 35 35 40 39 40 35 32 29 31
28 27 26 24 20 19 19 21 20 23 22 18 18 20 22 19 30 32 25 21 20 21 20 20 18 17 18 21 22 22 22 24 30 34 37 38 40 40 41 42 44 48 49 48 45 44 40 36 34
28 27 24 20 17 18 21 17 18 22 24 23 21 26 33 36 32 26 22 22 22 20 18 17 17 16 18 20 21 23 27 31 36 38 40 42 43 46 48 49 52 54 55 50 47 41 34 32 31
27 25 22 14 16 18 20 17 26 30 29 26 27 37 37 37 31 25 21 23 22 19 16 15 16 15 15 17 19 24 30 33 37 40 44 46 46 49 51 52 55 56 57 53 48 40 32 30 29
24 21 13 10 19 20 21 24 32 35 33 37 40 36 36 35 29 25 25 24 21 18 15 13 13 13 14 16 20 26 31 35 38 41 46 50 51 54 55 55 59 61 60 55 45 37 33 29 30
23 20 9 9 22 21 25 35 40 40 43 41 40 37 35 31 30 28 26 23 19 15 11 9 9 11 14 17 21 27 32 35 39 43 48 53 54 56 59 60 64 67 62 57 43 35 32 31 28
23 20 15 14 21 24 37 46 46 46 42 39 38 37 37 32 31 27 24 22 18 13 10 6 8 10 13 17 22 26 31 35 39 44 48 53 56 60 63 63 68 69 61 57 41 33 35 36 36
23 23 24 19 23 32 47 46 45 43 42 37 36 37 41 39 33 27 24 19 15 12 8 4 4 8 13 18 22 26 31 36 40 44 49 54 58 60 64 65 69 67 60 54 39 35 37 37 38
29 28 30 23 32 44 47 47 42 38 36 33 32 34 35 33 31 26 20 17 13 10 7 2 4 8 14 18 22 26 32 37 41 46 51 55 59 61 63 67 70 67 59 50 40 37 36 38 41
39 40 30 24 37 44 46 44 39 39 35 32 33 33 31 29 26 24 20 16 13 9 5 1 6 10 15 19 24 28 33 38 43 48 53 57 62 64 66 69 71 66 59 47 38 34 39 39 41
37 33 33 36 42 42 43 40 37 33 35 36 34 32 29 27 25 20 16 12 8 5 2 4 8 13 16 21 26 30 35 39 44 50 54 58 63 66 67 71 72 66 57 49 39 36 40 41 45
47 47 46 41 42 43 43 40 37 33 35 33 34 32 27 24 21 17 14 8 7 5 6 8 12 16 19 23 28 32 37 42 46 51 56 59 65 67 68 72 73 65 54 48 42 39 41 44 48